Date,TemperatureHighF,TemperatureAvgF,TemperatureLowF,DewpointHighF,DewpointAvgF,DewpointLowF,HumidityHigh,HumidityAvg,HumidityLow,PressureMaxIn,PressureMinIn,WindSpeedMaxMPH,WindSpeedAvgMPH,GustSpeedMaxMPH,PrecipitationSumIn
2013-2-1,61.9,50.5,42.4,42.2,37.4,31.6,76,62,44,30.10,30.02,6,0,6,0.00
2013-2-2,63.5,51.5,45.0,44.2,38.1,33.7,71,61,47,30.15,30.07,0,0,0,0.00
2013-2-3,60.4,49.7,42.4,44.8,38.5,33.4,75,66,54,30.08,29.97,0,0,0,0.00
2013-2-4,59.5,49.3,42.1,44.3,37.7,31.7,78,65,52,30.01,29.91,0,0,0,0.00
2013-2-5,55.2,47.4,41.5,45.3,39.6,33.7,82,74,65,29.99,29.87,8,0,8,0.00
2013-2-6,55.4,45.3,36.7,40.3,35.9,31.4,83,71,55,30.00,29.93,9,0,9,0.00
2013-2-7,47.1,43.0,38.1,41.1,36.7,33.2,83,78,68,29.95,29.80,18,0,18,0.61
2013-2-8,52.0,42.4,35.4,37.5,30.2,22.4,83,64,42,29.85,29.78,6,0,6,0.02
2013-2-9,53.4,42.0,33.3,31.2,27.4,23.4,69,57,37,29.93,29.83,0,0,0,0.00
2013-2-10,56.5,45.3,35.8,36.4,30.0,23.8,73,56,35,29.97,29.88,13,0,13,0.00
2013-2-11,58.5,47.1,38.3,35.5,29.4,23.7,68,51,38,30.09,29.96,0,0,0,0.00
2013-2-12,55.9,45.2,37.9,38.2,33.6,28.1,77,64,50,30.20,30.08,0,0,0,0.00
2013-2-13,61.5,48.9,39.4,42.9,37.3,31.4,77,66,44,30.17,30.05,0,0,0,0.00
2013-2-14,70.5,57.7,44.4,42.9,35.6,29.7,75,46,27,30.14,30.05,19,0,19,0.00
2013-2-15,66.0,55.6,48.6,41.4,36.0,29.5,66,49,38,30.15,30.09,0,0,0,0.00
2013-2-16,48.7,46.2,44.4,37.1,32.9,30.6,64,60,57,30.12,30.06,0,0,0,0.00
2013-2-18,58.8,51.0,42.6,40.9,38.1,32.5,76,62,45,29.85,29.72,16,0,16,0.00
2013-2-19,43.5,38.2,32.5,38.1,32.3,27.9,83,79,74,29.73,29.55,21,0,21,0.43
2013-2-20,54.0,41.3,31.8,37.8,31.1,27.3,83,69,45,29.85,29.65,6,0,6,0.02
2013-2-21,54.7,43.6,32.7,34.4,29.5,25.3,76,59,40,30.00,29.84,7,0,7,0.00
2013-2-22,57.7,47.7,37.9,38.9,33.8,27.9,68,59,48,30.07,29.94,14,0,14,0.00
2013-2-23,54.9,46.7,37.6,35.9,27.4,18.0,75,49,28,30.10,29.94,19,0,19,0.00
2013-2-24,58.8,46.3,35.8,30.9,25.5,20.5,56,45,32,30.11,30.00,0,0,0,0.00
2013-2-25,58.3,48.2,39.4,35.0,28.1,22.5,61,47,28,30.11,30.01,0,0,0,0.00
2013-2-26,61.9,50.4,39.9,32.4,24.9,17.3,52,37,28,30.07,30.01,11,0,11,0.00
2013-2-27,64.2,51.2,41.5,35.0,29.1,21.9,54,43,31,30.21,30.06,0,0,0,0.00
2013-2-28,66.6,54.3,44.2,42.4,36.7,29.9,66,52,38,30.29,30.19,4,0,4,0.00